Showing default

GLOBALSTAR M036, 25623

Orbit data source: Space-Track

GLOBALSTAR M036, 25623 is a payload satellite owned by Globalstar (US) in LEO that was launched on Tue, 09 Feb 1999 UTC via a SOYUZ-U-PVB launch vehicle from the Tyuratam Missile And Space Complex (TTMTR). Payloads include a variety of satellites, spacecraft, and rockets equipped with specific instruments for various scientific and technological missions. These include communications satellites like Starlink; space stations such as the ISS; scientific satellites like the Hubble; Earth observation satellites from companies like Planet Labs, Umbra, and HawkEye 360; GPS; miniature CubeSats for education and research; and military/defense satellites.

Loading next visibility...
GLOBALSTAR M036 details
Identifier
25623, 1999-004C
Orbit
LEO
Last TLE update1 day ago
Origin
Flag of USGlobalstar (US / GLOB)
ManufacturerSS/Loral
MissionNon-operational Commercial Communications
Bus & MotorLS-400, LS-400 AOCS
Mass450 kg wet, 380 kg dry
Launch date (UTC)
1999-02-09 (26 years ago)
Launch vehicle
SOYUZ-U-PVB
Launch site
Tyuratam Missile And Space Complex (TTMTR)
Object type
Payload
Rocket body
Debris
Shape & HBRBox + 2 Pan, 12 m
Radar Cross Section5.587 m², Large (>1 m²)

Expand to show TLE details & history

TLE from 1 day ago
0 GLOBALSTAR M036
1 25623U 99004C   24360.45555094 -.00000006  00000-0  11226-2 0  9993
2 25623  51.9994 338.2366 0011127  79.7588  93.7282 11.86585103158355
Epoch: 2024-12-25T10:55Z
Definitive object data (Epoch: 2024-12-25T10:55:59.601Z)
Latitude4.98875°
Longitude-104.10278°
Altitude1,742.232 km
Speed7.008 km/s
True Right ascension10h 17m 22s
True Declination4° 57' 46"
Sunlit
Object was in daylight at TLE epoch
Visualization TLE readout
Latitude-27.94133°
Longitude-78.54381°
Altitude1,756.043 km
Speed6.999 km/s
Apparent Right ascension14h 03m 25s
Apparent Declination-69° 24' 56"
Sunlit
Object is in daylight
Visualization observer readout
Local Sidereal Time10:47:20
Azimuth162.959° S
Elevation-25.078°
Doppler factor1
Orbital elements
Apogee altitude1,750.899 km
Perigee altitude1,732.829 km
Semi-major axis8,120.001 km
Eccentricity0.0011127
Inclination51.9994°
RAAN338.2366°
Arg. of periapsis79.7588°
True anomaly93.85542°
Mean anomaly93.7282°
Eccentric anomaly93.79181°
Mean motion2.96626 °/min
BSTAR0.0011226
Orbital period121.36 mins
Loading maneuver chart data...
Loading historical data...
Loading historical data...
Loading historical data...
Loading historical data...
Loading historical data...
Loading historical data...
Loading historical data...

GLOBALSTAR M036 Visibility forecast

Observer location: undefined°, undefined

Span
Click to sort rows by Start time (UTC) header in descending order
Start Az.
Max El. time (UTC)
Max El. Az.
Max El.
End time (UTC)
End Az.
7 mins2024-12-26 22:28:59.981Z133.106° SE2024-12-26 22:31:59.981Z114.983° SE12.729°2024-12-26 22:35:59.981Z91.228° ESE
18 mins2024-12-27 00:28:59.981Z205.712° SW2024-12-27 00:37:59.981Z130.872° SE40.396°2024-12-27 00:46:59.981Z58.07° ENE
18 mins2024-12-27 02:36:59.981Z257.11° W2024-12-27 02:45:59.981Z337.43° NNW40.727°2024-12-27 02:54:59.981Z51.489° ENE
18 mins2024-12-27 04:46:59.981Z294.853° NW2024-12-27 04:55:59.981Z7.034° NNE33.862°2024-12-27 05:04:59.981Z69.994° E
19 mins2024-12-27 06:55:59.981Z308.787° NW2024-12-27 07:04:59.981Z23.487° NE41.644°2024-12-27 07:14:59.981Z108.199° ESE
17 mins2024-12-27 09:04:59.981Z298.339° NW2024-12-27 09:12:59.981Z227.768° WSW38.665°2024-12-27 09:21:59.981Z158.227° S
|